Weather reports worldwide

Advertisment
Gemini, Netherlands (6214): temperature & dewpoint: 22.10.2020 15:00:00 - 28.10.2020 15:00:00 (CET)Gemini, Netherlands (6214): wind speed & gusts: 22.10.2020 15:00:00 - 28.10.2020 15:00:00 (CET)Gemini, Netherlands (6214): wind direction: 22.10.2020 15:00:00 - 28.10.2020 15:00:00 (CET)Gemini, Netherlands (6214): reduced air pressure: 22.10.2020 15:00:00 - 28.10.2020 15:00:00 (CET)Gemini, Netherlands (6214): visibility: 22.10.2020 15:00:00 - 28.10.2020 15:00:00 (CET)
Date & Time tt [°C] td [°C] ff [km/h] ff [kn] fx [km/h] fx [kn] dd ppp [hPa] vv [km]
28.10.2020 15:00:00 13,1 6,7 47 25 58 31 SW 1002,7 25
28.10.2020 14:00:00 12,8 6,6 57 31 65 35 WSW 1002,5 10
28.10.2020 13:00:00 11,7 6,9 47 25 68 37 WSW 1003,2 19
28.10.2020 12:00:00 11,8 7,9 48 26 61 33 SW 1002,1 10
28.10.2020 11:00:00 12,0 7,2 48 26 58 31 SW 1002,6 10
28.10.2020 10:00:00 11,3 8,6 47 25 76 41 SW 1002,1 8
28.10.2020 09:00:00 11,9 8,5 35 19 65 35 SW 1001,8 10
28.10.2020 08:00:00 12,7 6,6 50 27 50 27 WSW 1001,0 10
28.10.2020 07:00:00 12,4 5,3 40 21 50 27 WSW 1000,6 28
28.10.2020 06:00:00 12,3 5,8 40 21 47 25 WSW 1000,4 25
28.10.2020 05:00:00 12,2 5,7 32 18 50 27 WSW 999,4 24
28.10.2020 04:00:00 12,5 7,4 39 21 47 25 W 998,9 10
28.10.2020 03:00:00 12,7 7,3 42 23 47 25 W 998,5 10
28.10.2020 02:00:00 12,6 6,8 48 26 47 25 W 997,5 10
28.10.2020 01:00:00 13,0 8,8 37 20 65 35 W 996,8 10
28.10.2020 00:00:00 11,1 10,4 57 31 76 41 SW 996,5 10
27.10.2020 23:00:00 10,7 9,6 68 37 79 43 SSW 996,3 10
27.10.2020 22:00:00 11,0 9,2 70 38 76 41 SSW 996,9 10
27.10.2020 21:00:00 10,4 8,8 65 35 68 37 SSW 996,8 8
27.10.2020 20:00:00 11,0 8,0 65 35 68 37 SSW 997,8 10
27.10.2020 19:00:00 11,3 7,8 55 30 61 33 SSW 998,3 10
27.10.2020 18:00:00 11,1 8,2 50 27 58 31 SSW 998,7 10
27.10.2020 17:00:00 10,2 7,5 63 34 72 39 SW 999,8 10
27.10.2020 16:00:00 11,2 8,4 42 23 68 37 SSW 999,8 10
27.10.2020 15:00:00 11,1 7,8 54 29 65 35 SSW 1000,2 31
27.10.2020 14:00:00 11,2 7,7 55 30 61 33 SW 1000,3 10
27.10.2020 13:00:00 11,2 7,2 50 27 58 31 SW 1000,7 10
27.10.2020 12:00:00 10,5 6,3 24 13 61 33 WSW 1000,9 2,8
27.10.2020 11:00:00 11,3 8,6 35 19 54 29 SW 1000,6 10
27.10.2020 10:00:00 11,3 8,5 50 27 58 31 SW 1000,0 10
27.10.2020 09:00:00 11,7 8,5 46 25 58 31 WSW 999,9 7
27.10.2020 08:00:00 12,5 6,8 48 26 50 27 WSW 999,6 10
27.10.2020 07:00:00 12,3 7,1 44 24 50 27 WSW 999,0 10
27.10.2020 06:00:00 12,4 6,8 46 25 50 27 WSW 999,0 10
27.10.2020 05:00:00 11,6 8,7 40 21 50 27 SW 998,2 30
27.10.2020 04:00:00 11,4 8,9 50 27 54 29 SW 998,0 10
27.10.2020 03:00:00 11,8 8,0 48 26 54 29 SW 998,2 10
27.10.2020 02:00:00 11,7 7,8 41 22 54 29 SW 998,3 10
27.10.2020 01:00:00 11,9 8,4 46 25 50 27 SW 997,8 10
27.10.2020 00:00:00 11,1 8,6 48 26 54 29 SW 998,0 10
26.10.2020 23:00:00 11,4 8,7 48 26 50 27 SW 997,5 10
26.10.2020 22:00:00 11,2 8,2 54 29 58 31 SSW 997,8 10
26.10.2020 21:00:00 11,2 8,4 52 28 58 31 SW 997,9 10
26.10.2020 20:00:00 9,3 7,9 41 22 65 35 SW 997,3 3,5
26.10.2020 19:00:00 11,3 8,1 40 21 54 29 SSW 997,4 43
26.10.2020 18:00:00 11,2 7,8 50 27 54 29 SSW 997,3 10
26.10.2020 17:00:00 10,2 6,7 39 21 54 29 WSW 997,7 10
26.10.2020 16:00:00 11,3 7,3 24 13 47 25 SW 997,7 10
26.10.2020 15:00:00 9,7 6,8 22 12 47 25 WSW 997,5 10
26.10.2020 14:00:00 10,1 7,3 48 26 58 31 SW 998,1 10
26.10.2020 13:00:00 10,9 7,2 48 26 54 29 SW 998,1 10
26.10.2020 12:00:00 10,8 7,2 44 24 50 27 SSW 997,9 10
26.10.2020 11:00:00 10,6 7,3 42 23 50 27 SW 998,0 10
26.10.2020 10:00:00 10,6 7,4 41 22 50 27 SW 998,3 10
26.10.2020 09:00:00 10,8 7,4 44 24 50 27 SSW 998,2 10
26.10.2020 08:00:00 10,9 8,6 48 26 50 27 SSW 998,1 10
26.10.2020 07:00:00 11,1 8,7 41 22 47 25 SSW 997,2 10
26.10.2020 06:00:00 11,1 8,7 44 24 47 25 SSW 997,6 10
26.10.2020 05:00:00 11,5 8,5 35 19 43 23 SSW 997,2 10
26.10.2020 04:00:00 11,6 9,0 39 21 47 25 SSW 997,1 10
26.10.2020 03:00:00 11,6 8,9 41 22 43 23 SSW 997,3 10
26.10.2020 02:00:00 12,1 9,0 37 20 47 25 SW 998,0 10
26.10.2020 01:00:00 12,0 8,9 39 21 43 23 SW 998,6 10
26.10.2020 00:00:00 12,1 8,5 41 22 47 25 SW 998,3 10
25.10.2020 23:00:00 12,0 8,9 39 21 47 25 SW 998,3 10
25.10.2020 22:00:00 12,0 8,5 42 23 50 27 SW 998,9 10
25.10.2020 21:00:00 12,1 8,7 44 24 47 25 SW 998,8 10
25.10.2020 20:00:00 12,4 8,2 46 25 54 29 SSW 999,0 10
25.10.2020 19:00:00 12,6 9,1 48 26 54 29 SSW 998,9 10
25.10.2020 18:00:00 12,3 8,2 46 25 50 27 SSW 998,5 10
25.10.2020 17:00:00 12,5 9,3 41 22 47 25 SSW 998,2 10
25.10.2020 16:00:00 12,4 7,8 29 16 58 31 SW 998,1 10
25.10.2020 15:00:00 11,9 7,3 52 28 61 33 SW 999,7 10
25.10.2020 14:00:00 12,6 10,1 39 21 47 25 SW 998,2 10
25.10.2020 13:00:00 12,8 10,5 37 20 43 23 SW 999,0 10
25.10.2020 12:00:00 12,7 10,5 39 21 47 25 SW 998,5 10
25.10.2020 11:00:00 12,7 10,2 50 27 58 31 SW 998,8 10
25.10.2020 10:00:00 12,7 10,1 55 30 58 31 SW 998,6 10
25.10.2020 09:00:00 12,6 10,3 50 27 54 29 SW 997,7 10
25.10.2020 08:00:00 12,2 10,4 40 21 58 31 SW 997,6 16
25.10.2020 07:00:00 12,1 10,6 48 26 58 31 SW 997,5 10
25.10.2020 06:00:00 12,8 11,2 48 26 58 31 SW 997,6 10
25.10.2020 05:00:00 13,5 11,9 65 35 76 41 SW 997,5 4,3
25.10.2020 04:00:00 15,1 11,8 65 35 68 37 SSW 996,8 10
25.10.2020 03:00:00 15,1 11,9 67 36 68 37 SSW 997,1 10
25.10.2020 02:00:00 15,2 12,0 70 38 72 39 SSW 997,6 10
25.10.2020 01:00:00 - - - - - - - - -
25.10.2020 00:00:00 14,9 12,1 65 35 68 37 SSW 999,2 10
24.10.2020 23:00:00 14,6 12,0 65 35 65 35 SSW 999,7 10
24.10.2020 22:00:00 14,6 12,0 61 33 65 35 SSW 1000,7 10
24.10.2020 21:00:00 14,3 11,9 61 33 65 35 SSW 1001,4 10
24.10.2020 20:00:00 14,2 11,8 59 32 65 35 SSW 1002,1 10
24.10.2020 19:00:00 14,2 11,1 59 32 61 33 SSW 1003,2 10
24.10.2020 18:00:00 13,9 10,7 43 23 54 29 SSW 1003,9 38
24.10.2020 17:00:00 13,8 10,6 50 27 54 29 SSW 1004,7 10
24.10.2020 16:00:00 13,8 10,4 48 26 58 31 SSW 1005,6 10
24.10.2020 15:00:00 13,5 10,7 50 27 58 31 SW 1006,4 10
24.10.2020 14:00:00 13,2 10,9 50 27 54 29 SW 1006,7 10
24.10.2020 13:00:00 12,6 10,9 50 27 54 29 SSW 1007,1 10
24.10.2020 12:00:00 12,7 9,9 42 23 50 27 SSW 1007,4 10
24.10.2020 11:00:00 12,6 8,2 37 20 43 23 SW 1007,9 10
24.10.2020 10:00:00 13,2 6,2 41 22 47 25 WSW 1008,1 10
24.10.2020 09:00:00 12,9 5,9 35 19 40 21 WSW 1007,8 10
24.10.2020 08:00:00 12,8 6,3 28 15 43 23 WSW 1007,7 10
24.10.2020 07:00:00 12,4 6,1 28 15 40 21 W 1007,2 10
24.10.2020 06:00:00 12,3 5,8 22 12 36 19 W 1007,6 10
24.10.2020 05:00:00 12,3 5,5 24 13 40 21 W 1007,5 10
24.10.2020 04:00:00 12,5 6,4 34 18 40 21 W 1007,5 10
24.10.2020 03:00:00 12,7 7,6 37 20 40 21 W 1007,5 10
24.10.2020 02:00:00 13,1 9,0 29 16 40 21 W 1007,2 42
24.10.2020 01:00:00 13,5 10,0 37 20 43 23 W 1006,6 10
24.10.2020 00:00:00 13,8 10,5 28 15 32 18 W 1006,5 10
23.10.2020 23:00:00 13,9 10,8 34 18 40 21 W 1006,6 10
23.10.2020 22:00:00 13,9 11,6 24 13 58 31 WSW 1006,0 10
23.10.2020 21:00:00 13,2 12,4 39 21 50 27 SW 1005,6 8
23.10.2020 20:00:00 13,7 12,3 37 20 50 27 SW 1006,5 5
23.10.2020 19:00:00 13,8 12,3 37 20 43 23 SW 1006,7 9
23.10.2020 18:00:00 14,1 11,8 32 18 47 25 SW 1006,9 20
23.10.2020 17:00:00 14,1 12,2 34 18 43 23 SSW 1006,6 10
23.10.2020 16:00:00 13,7 11,7 34 18 40 21 SSW 1006,4 10
23.10.2020 15:00:00 12,8 10,8 26 14 32 18 SSW 1006,9 10
23.10.2020 14:00:00 12,5 10,9 31 17 40 21 SSW 1007,4 10
23.10.2020 13:00:00 11,8 11,2 34 18 40 21 SSW 1008,1 2,7
23.10.2020 12:00:00 12,9 10,6 26 14 32 18 SSW 1008,5 10
23.10.2020 11:00:00 12,9 10,5 24 13 29 16 SSW 1008,9 10
23.10.2020 10:00:00 12,9 9,3 18 10 32 18 SW 1009,1 40
23.10.2020 09:00:00 13,3 7,8 18 10 29 16 W 1009,1 10
23.10.2020 08:00:00 12,9 7,5 21 11 32 18 W 1009,1 10
23.10.2020 07:00:00 12,8 6,7 31 17 36 19 W 1008,9 10
23.10.2020 06:00:00 12,7 6,1 31 17 36 19 W 1008,9 10
23.10.2020 05:00:00 12,8 6,2 28 15 40 21 W 1008,9 10
23.10.2020 04:00:00 12,8 6,2 22 12 40 21 W 1009,0 49
23.10.2020 03:00:00 13,0 6,8 35 19 40 21 W 1009,4 10
23.10.2020 02:00:00 13,1 7,1 41 22 43 23 W 1009,2 10
23.10.2020 01:00:00 13,2 6,9 42 23 47 25 W 1009,3 10
23.10.2020 00:00:00 13,2 7,0 42 23 50 27 W 1009,0 10
22.10.2020 23:00:00 13,2 7,5 46 25 50 27 W 1008,7 10
22.10.2020 22:00:00 13,3 6,6 52 28 54 29 W 1009,1 10
22.10.2020 21:00:00 13,4 7,7 50 27 50 27 W 1008,3 10
22.10.2020 20:00:00 13,6 8,8 46 25 54 29 W 1007,9 10
22.10.2020 19:00:00 14,5 10,0 54 29 58 31 WSW 1007,9 10
22.10.2020 18:00:00 14,6 10,6 54 29 58 31 WSW 1007,8 10
22.10.2020 17:00:00 14,6 10,6 55 30 61 33 WSW 1007,2 10
22.10.2020 16:00:00 14,8 10,5 43 23 54 29 WSW 1007,0 27
22.10.2020 15:00:00 14,7 10,9 48 26 61 33 WSW 1006,8 10

tt = temperature
td = dewpoint
ff = wind speed
fx = gusts
dd = wind direction
ppp = reduced air pressure
vv = visibility

Next stations